Regional Weather Roundup
Issued by NWS

Home | Current Version | Previous Version | Graphics & Text | Print | Product List | Glossary Off
Versions: 1 2 3 4 5 6 7 8 9 10 11 12 13 14 15 16 17 18 19 20 21 22 23 24 25 26 27 28 29 30 31 32 33 34 35 36 37 38 39 40 41 42 43 44 45 46 47 48 49 50

000
ASUS43 KMPX 021001
RWRMN
WEATHER ROUNDUP FOR MINNESOTA
NATIONAL WEATHER SERVICE TWIN CITIES/CHANHASSEN MN
500 AM CDT SUN AUG 02 2015


NOTE: "FAIR" INDICATES FEW OR NO CLOUDS BELOW 12,000 FEET WITH NO
SIGNIFICANT WEATHER AND/OR OBSTRUCTIONS TO VISIBILITY. N/A MEANS
CURRENT SKY AND/OR WEATHER CONDITIONS ARE NOT AVAILABLE.

MNZ060>063-068>070-021100-
   Twin Cities Metro

CITY           SKY/WX    TMP DP  RH WIND       PRES   REMARKS
TWIN CITIES    PTCLDY    74  64  71 SW12G22   29.63F
ST PAUL        CLEAR     73  64  73 S10       29.63F
CRYSTAL        CLEAR     73  64  73 SW12      29.61F
BLAINE         CLEAR     73  64  73 SW12      29.61F
LAKEVILLE      CLEAR     70  64  83 S3        29.67F
EDEN PRAIRIE   CLEAR     71  64  78 SW14      29.64F
SOUTH ST PAUL  CLEAR     74  63  68 SW9       29.64F
LAKE ELMO      FAIR      70  64  83 S10       29.64F
$$
MNZ001>005-007-008-013>017-022>024-027-028-021100-
   Northwest Minnesota

CITY           SKY/WX    TMP DP  RH WIND       PRES   REMARKS
BEMIDJI        PTCLDY    60  57  89 CALM      29.67S
HALLOCK        MOCLDY    63  61  94 NW5       29.69R
ROSEAU         PTCLDY    59  54  82 CALM      29.66R
WARROAD        MOCLDY    61  55  82 NW3       29.66S
THIEF RVR FALL CLOUDY    63  57  82 N6        29.67R
CROOKSTON      MOCLDY    66  61  82 N5        29.67R
FOSSTON        PTCLDY    59  55  88 CALM      29.66F
DETROIT LAKES  PTCLDY    66  64  94 NE7       29.66F
MOORHEAD       CLEAR     64  64 100 NE7       29.62F
PARK RAPIDS    MOCLDY    69  62  78 NE3       29.66F
MAHNOMEN       FAIR      64  61  91 E7        29.64F
$$
MNZ006-009>011-018-025>026-021100-
   North Central Minnesota

CITY           SKY/WX    TMP DP  RH WIND       PRES   REMARKS
BAUDETTE       MOCLDY    57  56  96 NW6       29.64F
FLAG ISLAND    PTCLDY    66  57  72 N8        29.64S
INTL FALLS     MOCLDY    59  57  93 N5        29.63F
WASKISH        LGT RAIN  64  61  88 SW14      29.65R
BIG FORK       CLOUDY    61  57  88 CALM      29.65F
LONGVILLE      PTCLDY    63  63 100 CALM      29.66F
GRAND RAPIDS   PTCLDY    64  54  68 CALM      29.66F
CRANE LAKE     CLOUDY    57  55  94 CALM      29.66S
ORR            LGT RAIN  63  55  77 NW10G20   29.62F
COOK           CLOUDY    61  57  88 SW8       29.67F
WALKER         FAIR      62  60  92 CALM      29.67F
$$
MNZ012-019>021-037-021100-
   Northeast Minnesota

CITY           SKY/WX    TMP DP  RH WIND       PRES   REMARKS
DULUTH         CLOUDY    67  57  70 N10       29.65F
ELY            LGT RAIN  61  55  82 W5        29.65F
HIBBING        CLOUDY    61  55  81 CALM      29.67F
EVELETH        CLOUDY    63  54  72 CALM      29.66F
DULUTH HARBOR  CLOUDY    59  55  88 N13       29.65S
TWO HARBORS    CLOUDY    70  57  64 N5        29.64F
SILVER BAY     CLOUDY    66  55  68 NW6       29.62F
GRAND MARAIS     N/A     61  58  90 VRB5      29.59F
G MARAIS ARPRT   N/A     57  54  88 CALM      29.66F
$$
MNZ029>031-032-039>041-046>048-054>057-064-021100-
   West Central Minnesota

CITY           SKY/WX    TMP DP  RH WIND       PRES   REMARKS
FERGUS FALLS   PTCLDY    64  64 100 S5        29.62F
WHEATON        PTCLDY    64  61  88 CALM      29.64F
MORRIS         PTCLDY    66  64  94 CALM      29.65F
ALEXANDRIA     PTCLDY    67  64  90 W6        29.68F
ELBOW LAKE     FAIR      64  63  97 S6        29.65F
WADENA         MOCLDY    64  63  94 CALM      29.66R
GLENWOOD       CLEAR     66  64  94 SW8       29.67F
APPLETON       PTCLDY    70  64  83 SW7       29.65F
BENSON         PTCLDY    64  61  88 W5        29.67F
ORTONVILLE     PTCLDY    68  61  77 SW5       29.66F
MADISON        PTCLDY    68  61  77 SW6       29.67F
WILLMAR        FAIR      66  63  88 W7        29.70R
$$
MNZ033>034-036-042>043-049>051-058-059-021100-
   Central Minnesota

CITY           SKY/WX    TMP DP  RH WIND       PRES   REMARKS
ST CLOUD       PTCLDY    67  64  90 NW6       29.66R
SAUK CENTRE    FAIR      64  63  94 SW5       29.67F
PAYNESVILLE    CLEAR     61  61 100 SW8       29.69R
AITKIN         PTCLDY    63  57  82 N5        29.65R HAZE
PINE RIVER     MOCLDY    64  63  94 CALM      29.69F
BRAINERD       PTCLDY    65  64  97 CALM      29.64F
STAPLES        MOCLDY    64  63  94 CALM      29.66F
LONG PRAIRIE   FAIR      64  63  94 N3        29.67R
LITTLE FALLS   PTCLDY    63  61  94 CALM      29.66S
LITCHFIELD     CLEAR     68  66  94 CALM      29.67S
BUFFALO        CLEAR     69  64  84 SW7       29.65F
MAPLE LAKE     CLEAR     68  66  94 S6        29.65S
$$
MNZ037-044-045-052-053-021100-
   East Central Minnesota

CITY           SKY/WX    TMP DP  RH WIND       PRES   REMARKS
PRINCETON      PTCLDY    70  64  83 CALM      29.65R
MORA           MOCLDY    64  63  94 E3        29.68F
CAMBRIDGE      PTCLDY    72  61  68 CALM      29.65R
RUSH CITY      PTCLDY    69  64  84 CALM      29.67R THUNDER
MOOSE LAKE     MOCLDY    61  61 100 S5        29.65S
HINCKLEY       LGT RAIN  63  61  94 CALM      29.63F
CLOQUET        CLOUDY    64  57  77 N8        29.66S
MCGREGOR       MOCLDY    63  61  94 CALM      29.66R
$$
MNZ071>073-080-081-089-090-097-098-021100-
   Southwest Minnesota

CITY           SKY/WX    TMP DP  RH WIND       PRES   REMARKS
MONTEVIDEO     PTCLDY    66  63  88 W6        29.69F
GRANITE FALLS  PTCLDY    66  62  85 SW8       29.71S
CANBY          CLEAR     70  60  71 W12       29.70F
MARSHALL       CLEAR     70  59  68 W14G20    29.71F
REDWOOD FALLS  CLEAR     69  63  81 SW13      29.69R
OLIVIA         CLEAR     64  61  88 SW8       29.69R
PIPESTONE      CLEAR     64  61  88 SW8       29.77F
WINDOM         CLEAR     68  63  83 SW9       29.73F
WORTHINGTON    CLEAR     70  61  73 SW13      29.76S
JACKSON        CLEAR     68  63  83 S15       29.74F
SLAYTON        CLEAR     67  62  84 SW15G21   29.76S
$$
MNZ065>067-074>077-082>085-091>093-021100-
   South Central Minnesota

CITY           SKY/WX    TMP DP  RH WIND       PRES   REMARKS
MANKATO        CLEAR     70  63  78 SW10      29.69F
NEW ULM        CLEAR     70  63  78 SW8       29.68F
ST JAMES       CLEAR     70  64  83 S9        29.70F
FAIRMONT       CLEAR     70  61  73 SW9       29.75F
GLENCOE        CLEAR     68  66  93 S7        29.66F
FARIBAULT      PTCLDY    70  64  83 S8        29.71F
OWATONNA       PTCLDY    70  63  78 SW9       29.73F
WASECA         PTCLDY    64  63  94 S7        29.74F
ALBERT LEA     PTCLDY    72  66  83 SW9       29.76F
$$
MNZ078>079-086>088-094>096-021100-
   Southeast Minnesota

CITY           SKY/WX    TMP DP  RH WIND       PRES   REMARKS
ROCHESTER      MOCLDY    70  67  90 SW16      29.76F
RED WING       CLEAR     72  64  78 SW3       29.67F
STANTON        CLEAR     70  64  80 S5        29.68F
DODGE CENTER   PTCLDY    70  64  83 SW12G20   29.75F
WINONA         CLEAR     73  68  83 SW5       29.72F
AUSTIN         MOCLDY    70  66  88 SW8       29.77F
PRESTON        MOCLDY    70  66  86 SW14      29.78F
$$
ABBREVIATIONS USED IN REMARKS
   TC - TEMPERATURES IN CELSIUS
  WCI - WIND CHILL INDEX
   HX - HEAT INDEX
  VSB - VISIBILITY
$$



USA.gov is the U.S. government's official web portal to all federal, state and local government web resources and services.